Create Custom Reports and Graphics: Custom Report

Squaw-Red Dog 6200'

Current Conditions

7/18/19 11:00 PM (-07:00)
Updated Every 15 Minutes
Temp 57.0 °F   0.8
RH 71 %   6
Dew Pt 47.8 °F   1.5
Wet Bulb 52.6 °F   0.6
Wind Dir WSW | 246 °
Wind Spd 1.0 mph   0.7
Wind Gust 2.4 mph   1.2
WindChill 57.0 °F   0.8
Daily Min Temp 46.2 °F   1.5
Daily Max Temp 77.0 °F   2.1
Latest Rain 0.00 In
Daily Rain 0.00 In
New Snow 84.3 in
SnowDepth 14 in

Last 24 Hours

Squaw-Red Dog 6200'

Hourly Data | America/Los_Angeles
as of 7/18/19 11:15 PM PDT
Date & Time Temp (°F) RH (%) Dew Pt (°F) Wet Bulb (°F) Wind Dir (°) Wind Spd (mph) Wind Gust (mph) Latest Rain (In) New Snow (in) SnowDepth (in) Daily Min Temp (°F) Daily Max Temp (°F) Daily Rain (In)
7/18/19 - 2300 57.0 71 47.8 52.6 WSW | 251 1.2 4.1 0.00 84.3 14 46.2 77.0 0.00
7/18/19 - 2200 59.5 69 49.2 54.3 WSW | 246 3.5 9.4 0.00 82.7 10 46.2 77.0 0.00
7/18/19 - 2100 63.0 62 49.9 56.0 NW | 308 3.8 10.6 0.00 89.2 14 46.2 77.0 0.00
7/18/19 - 2000 65.7 54 48.6 56.1 NW | 320 2.6 7.9 0.00 89.9 - 46.2 77.0 0.00
7/18/19 - 1900 73.3 37 45.8 56.9 NNE | 14 4.4 13.7 0.00 93.1 13 46.2 77.0 0.00
7/18/19 - 1800 73.4 36 44.5 56.3 NNE | 12 10.4 20.4 0.00 94.9 7 46.2 77.0 0.00
7/18/19 - 1700 74.4 34 44.1 56.4 N | 9 8.2 18.3 0.00 93.2 14 46.2 77.0 0.00
7/18/19 - 1600 75.6 32 44.1 56.7 N | 11 8.6 16.9 0.00 93.8 14 46.2 77.0 0.00
7/18/19 - 1500 76.1 26 38.4 54.5 NNE | 15 9.2 19.4 0.00 87.4 15 46.2 76.5 0.00
7/18/19 - 1400 75.4 27 38.8 54.5 NNE | 15 7.5 15.6 0.00 - 14 46.2 75.8 0.00
7/18/19 - 1300 73.2 26 36.5 53.0 NNE | 24 8.7 17.9 0.00 - 14 46.2 74.5 0.00
7/18/19 - 1200 72.6 28 37.7 53.2 NNE | 25 7.6 17.8 0.00 93.1 18 46.2 73.3 0.00
7/18/19 - 1100 71.4 31 39.2 53.5 N | 11 7.4 18.1 0.00 90.4 14 46.2 72.2 0.00
7/18/19 - 1000 69.3 32 38.2 52.4 NNE | 16 4.9 14.0 0.00 88.0 13 46.2 69.9 0.00
7/18/19 - 0900 67.4 42 43.8 54.2 NNE | 17 3.6 9.3 0.00 85.4 13 46.2 68.0 0.00
7/18/19 - 0800 65.2 51 46.6 54.9 NNW | 337 1.3 5.5 0.00 85.2 7 46.2 65.2 0.00
7/18/19 - 0700 53.6 78 46.8 50.6 WSW | 241 1.3 5.2 0.00 83.2 15 46.2 54.4 0.00
7/18/19 - 0600 47.8 91 45.2 47.0 WNW | 299 0.7 3.1 0.00 83.6 10 47.2 54.4 0.00
7/18/19 - 0500 47.7 91 45.2 47.0 W | 259 0.7 4.4 0.00 82.3 14 47.7 54.4 0.00
7/18/19 - 0400 48.3 92 45.9 47.6 WSW | 238 0.9 3.7 0.00 85.4 14 48.0 54.4 0.00
7/18/19 - 0300 49.6 86 45.7 48.1 WSW | 257 0.6 2.9 0.00 83.9 14 49.6 54.4 0.00
7/18/19 - 0200 51.0 85 46.8 49.4 W | 263 0.6 2.3 0.00 83.4 14 50.9 54.4 0.00
7/18/19 - 0100 52.5 84 47.6 50.6 W | 279 0.6 2.4 0.00 84.8 13 52.4 54.4 0.00
7/18/19 - 0000 54.2 81 48.5 51.8 W | 264 0.7 2.0 0.00 83.8 14 44.7 79.1 0.00
7/17/19 - 2300 56.3 77 49.3 53.1 W | 259 0.5 1.6 0.00 81.1 10 44.7 79.1 0.00
Max 76.1 92 49.9 56.9 - 10.4 20.4 0.00 94.9 18 52.4 79.1 0.00
Avg 62.9 57 44.6 52.8 - 4.0 9.9 0.00 87.0 13 - - -
Min 47.7 26 36.5 47.0 - 0.5 1.6 0.00 81.1 7 44.7 54.4 0.00
Total - - - - - - - 0.00 - - - - -

Last 30 Days

Squaw-Red Dog 6200'

Daily Data | America/Los_Angeles
as of 7/18/19 11:15 PM PDT
Date Daily Max Temp (°F) Max Temp Time Daily Min Temp (°F) Min Temp Time Daily Rain (In) New Snow (in) SnowDepth (in) Wind Spd (mph) Daily Max Wind (mph) Max Wind Time Max Wind Dir (°) Max RH (%) Min RH (%) Wet Bulb (°F) WetB Hrs <28F (hrs) Bat Volt Min Day (V)
7/17/19 79.1 1138 44.7 0559 0.00 83.8 14 2.8 17.1 1647 NNW | 339 99 26 54.2 0.0 12.43
7/16/19 74.0 1451 41.9 0613 0.00 83.2 12 3.6 18.4 1226 NNE | 22 88 27 51.0 0.0 12.43
7/15/19 75.9 1424 43.0 0617 0.00 81.0 10 4.4 20.0 1648 N | 349 76 20 48.9 0.0 12.43
7/14/19 76.2 1349 43.4 0600 0.00 87.0 18 5.3 24.8 0930 NNE | 25 84 19 49.4 0.0 12.43
7/13/19 79.1 1436 44.0 0542 0.00 83.1 15 3.9 18.6 1007 N | 10 90 19 51.2 0.0 12.43
7/12/19 83.2 1119 44.6 0603 0.00 83.8 15 3.0 15.8 1553 N | 2 87 24 53.2 0.0 12.43
7/11/19 78.7 1450 43.0 0549 0.00 84.4 14 3.4 16.9 1322 NNE | 27 88 25 51.7 0.0 12.43
7/10/19 75.8 1231 43.7 0606 0.00 79.5 15 4.2 20.7 1613 NNE | 29 90 22 50.6 0.0 12.43
7/9/19 73.8 1601 37.9 0553 0.00 85.4 19 3.3 18.1 1305 NNE | 22 81 20 46.8 0.0 12.43
7/8/19 69.4 1229 39.6 0615 0.00 83.5 16 3.9 26.6 1658 NNE | 32 84 22 45.8 0.0 12.43
7/7/19 69.4 1631 41.7 0554 0.00 86.4 15 3.8 20.0 1644 NNE | 32 92 25 47.4 0.0 12.41
7/6/19 74.6 1143 41.5 0556 0.00 82.7 13 4.1 20.8 1336 N | 9 94 21 49.7 0.0 12.42
7/5/19 77.8 1245 43.5 0613 0.00 80.9 13 2.9 16.4 1616 NNW | 340 98 21 52.2 0.0 12.41
7/4/19 76.5 1419 37.1 0601 0.00 86.4 14 2.9 16.0 1820 NNW | 330 94 21 48.3 0.0 12.41
7/3/19 69.1 1220 38.7 0611 0.00 81.9 11 3.5 17.4 1401 NNE | 28 93 16 46.5 0.0 12.40
7/2/19 69.0 1352 39.6 0517 0.00 85.8 17 6.1 23.3 1512 NNW | 346 79 17 45.2 0.0 12.42
7/1/19 71.2 1111 37.4 0608 0.00 82.3 16 4.8 21.0 1528 NNE | 32 92 16 45.4 0.0 12.41
6/30/19 69.7 1556 43.0 0041 0.00 79.8 14 3.8 19.0 1545 NNE | 13 85 23 46.6 0.0 12.41
6/29/19 68.0 1145 33.2 0550 0.00 84.4 16 3.4 17.4 1117 NNE | 24 95 21 44.2 0.0 12.41
6/28/19 61.8 1150 40.9 2359 0.00 86.3 16 4.1 17.2 1222 NE | 34 83 19 42.7 0.0 12.41
6/27/19 60.1 1353 43.5 2355 0.00 83.6 19 10.3 30.1 1218 NNE | 29 63 23 42.2 0.0 12.38
6/26/19 61.1 1245 37.9 0542 0.00 86.1 19 9.9 31.3 1526 NNE | 26 88 33 43.7 0.0 12.39
6/25/19 67.4 1518 37.4 0526 0.00 84.2 14 5.0 22.4 1717 NNE | 29 91 18 45.4 0.0 12.41
6/24/19 70.6 1338 39.3 0553 0.00 80.4 15 4.3 21.9 1229 NE | 41 91 26 47.9 0.0 12.42
6/23/19 73.8 1115 36.5 0532 0.00 82.7 14 3.1 17.1 1624 NNE | 24 87 16 46.2 0.0 12.43
6/22/19 72.8 1804 34.8 0552 0.00 88.7 18 2.4 13.0 0906 SSE | 164 89 18 42.9 0.0 12.42
6/21/19 73.6 1538 37.2 0602 0.00 83.5 13 2.3 14.2 1141 NNE | 32 94 17 44.4 0.0 12.42
6/20/19 69.5 1311 44.6 0607 0.00 83.0 14 6.6 31.0 0930 N | 2 90 30 50.9 0.0 12.41
6/19/19 77.9 1444 46.6 0606 0.00 85.4 8 4.3 18.0 1457 NNW | 343 94 25 53.6 0.0 12.42
6/18/19 84.2 1450 44.7 0544 0.00 84.3 10 2.8 14.3 1653 ESE | 103 94 20 53.0 0.0 12.42
Max 84.2 - 46.6 - 0.00 88.7 19 10.3 31.3 - - 99 33 54.2 0.0 12.43
Avg - - - - - 83.8 15 4.3 - - - - - 48.0 - -
Min 60.1 - 33.2 - 0.00 79.5 8 2.3 13.0 - - 63 16 42.2 0.0 12.38
Calm: 0.0%
Calm: 0.0%